THORAD AGENA D DEB

Satellite information

Favourite Embed

Satellite Type and Status

DEBRISIN ORBIT

Key statistics

Satellite THORAD AGENA D DEB at a glance.

Uptime

20180

Days in orbit

Revolutions

≈ 13.9

Per day

Orbit

SSO

Sun Synchronous Orbit

Inclination

100.1

Latest

Satellite identification and parameters

Extended collection of information and parameters for THORAD AGENA D DEB.

Object identification

Identified? True

Debris? True

Object name: THORAD AGENA D DEB

International designator: 1970-025KV

Object number (NORAD): 5390

Object ID (CCSDS): 5390

Country: UNITED STATES OF AMERICA (US)

Current information (Y/N): Y

RCS size: SMALL

Orbital parameters

Period: 103.86 minutes

Inclination: 100.1123 deg

SMA: 7319.102 km

Apoapsis: 978.627 km

Periapsis: 903.307 km

RAAN: 204.3033 deg

Eccentricy: 0.0051455

Argument of periapsis: 139.106 deg

Mean anomaly: 282.325 deg

Mean motion: 13.8648784 rev/day

Mean motion (dot): 0.00000678 rev/day2

B* drag term: 0.00062145 1/REarth

Two-line elements (TLE)

Creation date: July 7, 2025, 6:36 a.m.

Reference frame: TEME

Reference center: EARTH

Epoch: July 6, 2025, 11:33 p.m. UTC

TLE line 0: 0 THORAD AGENA D DEB

TLE line 1: 1 5390U 70025KV 25187.98155524 .00000678 00000-0 62145-3 0 9995

TLE line 2: 2 5390 100.1123 204.3033 0051455 139.1060 282.3250 13.86487840761692

Live tracking on map

Real-time ground track for satellite THORAD AGENA D DEB.

In-orbit conjunctions

A list of the most updated potential collisions computed for object THORAD AGENA D DEB.

Target Orbit TCA Probability of collision Miss distance Type
COSMOS 1349 LEO 2025-01-10 20:41:00 0.002809732 61.0 (m) PAYLOAD

Associated space launch

Meteorological research and development satellite

THORAD AGENA D DEB was lifted into orbit during the mission ‘Thorad SLV-2G Agena D | Nimbus 4’, on board a Thorad SLV-2G Agena D space rocket.

The launch took place on April 8, 1970, 8:17 a.m. from Space Launch Complex 2E.

For more information about the launch, click the button.

Launch to space Thorad SLV-2G Agena D | Nimbus 4
Thorad SLV-2G Agena D | Nimbus 4

Agency: N/A

Status: Launch Successful

Launch date: April 8, 1970, 8:17 a.m. UTC

Rocket: Thorad SLV-2G Agena D

Launch pad: Space Launch Complex 2E

Location: Vandenberg SFB, CA, USA

...

Latest news about this satellite

There are no fresh news available about this satellite. Check back as we update our databases every day.


Newsletter sign-up

Weekly statistics, charts and insights to help you stay on top of the space industry.